Weather History for Nukus / Karakalpakstan, Uzbekistan

Change the Weather History Date:

Thursday, October 4, 2012

  Actual Average Record
Temperature  
Mean Temperature 56 °F -  
Max Temperature 69 °F - - ()
Min Temperature 42 °F - - ()
Degree Days  
Heating Degree Days 10    
Growing Degree Days 6 (Base 50)    
Moisture  
Dew Point 34 °F    
Average Humidity 48    
Maximum Humidity 81    
Minimum Humidity 23    
Precipitation  
Precipitation 0.00 in - - ()
Sea Level Pressure  
Sea Level Pressure 30.12 in    
Wind  
Wind Speed 2 mph ()    
Max Wind Speed 11 mph    
Max Gust Speed -    
T = Trace of Precipitation, MM = Missing Value Source: Averaged Metar Reports

Daily Weather History Graph

Daily Weather History Graph

Search for Another Location

Airport:

Trip Planner

Search our weather history database for the weather conditions in past years. The results will help you decide how hot, cold, wet, or windy it might be!

Date:

Astronomy

Oct. 04, 2012 Rise Set
Actual Time 7:02 AM UZT 6:37 PM UZT
Civil Twilight 6:33 AM UZT 7:05 PM UZT
Nautical Twilight 6:01 AM UZT 7:38 PM UZT
Astronomical Twilight 5:28 AM UZT 8:10 PM UZT
Moon 8:49 PM UZT (10/4) 11:02 AM UZT (10/4)
Length of Visible Light 12h 31m
Length of Day
11h 35m
Waning Gibbous, 85% of the Moon is Illuminated
Oct 4
Waning Gibbous
Oct 8
Last Quarter
Oct 15
New
Oct 22
First Quarter
Oct 30
Full

Hourly Weather History & Observations

Time (UZT) Temp. Windchill Dew Point Humidity Pressure Visibility Wind Dir Wind Speed Gust Speed Precip Events Conditions
12:00 AM 50.0 °F - 35.6 °F 58% 30.12 in - Calm Calm - N/A   Clear
12:30 AM 50.0 °F - 37.4 °F 62% 30.12 in - Calm Calm - N/A   Clear
1:00 AM 50.0 °F - 35.6 °F 58% 30.12 in - Calm Calm - N/A   Clear
1:30 AM 48.2 °F - 37.4 °F 66% 30.12 in - Calm Calm - N/A   Clear
2:00 AM 46.4 °F - 35.6 °F 66% 30.12 in - Calm Calm - N/A   Clear
2:30 AM 46.4 °F - 35.6 °F 66% 30.12 in - Calm Calm - N/A   Clear
3:00 AM 46.4 °F - 37.4 °F 71% 30.12 in - Calm Calm - N/A   Clear
3:30 AM 46.4 °F - 37.4 °F 71% 30.12 in - South 2.2 mph - N/A   Clear
4:00 AM 44.6 °F - 35.6 °F 71% 30.09 in - Calm Calm - N/A   Clear
4:30 AM 44.6 °F - 37.4 °F 76% 30.12 in - Calm Calm - N/A   Clear
5:00 AM 44.6 °F - 35.6 °F 71% 30.09 in - Calm Calm - N/A   Clear
5:30 AM 44.6 °F - 35.6 °F 71% 30.12 in - Calm Calm - N/A   Clear
6:00 AM 42.8 °F - 35.6 °F 76% 30.12 in - Calm Calm - N/A   Clear
6:30 AM 42.8 °F - 32.0 °F 66% 30.12 in - Calm Calm - N/A   Clear
7:00 AM 42.8 °F 40.2 °F 37.4 °F 81% 30.12 in - WNW 4.5 mph - N/A   Clear
7:30 AM 42.8 °F - 37.4 °F 81% 30.12 in - West 2.2 mph - N/A   Clear
8:00 AM 48.2 °F - 37.4 °F 66% 30.12 in - Calm Calm - N/A   Clear
8:30 AM 50.0 °F - 39.2 °F 66% 30.12 in - Calm Calm - N/A   Clear
9:00 AM 53.6 °F - 39.2 °F 58% 30.15 in - West 2.2 mph - N/A   Clear
9:30 AM 55.4 °F - 39.2 °F 54% 30.15 in - West 4.5 mph - N/A   Clear
10:00 AM 59.0 °F - 37.4 °F 45% 30.15 in - WSW 4.5 mph - N/A   Clear
10:30 AM 60.8 °F - 37.4 °F 42% 30.15 in - WSW 6.7 mph - N/A   Clear
11:00 AM 60.8 °F - 37.4 °F 42% 30.15 in - WSW 4.5 mph - N/A   Clear
11:30 AM 64.4 °F - 37.4 °F 37% 30.15 in - WSW 6.7 mph - N/A   Clear
12:00 PM 64.4 °F - 35.6 °F 34% 30.12 in - West 6.7 mph - N/A   Clear
12:30 PM 66.2 °F - 33.8 °F 30% 30.12 in - West 6.7 mph - N/A   Clear
1:00 PM 68.0 °F - 33.8 °F 28% 30.12 in - West 6.7 mph - N/A   Clear
1:30 PM 68.0 °F - 32.0 °F 26% 30.12 in - WNW 8.9 mph - N/A   Clear
2:00 PM 69.8 °F - 32.0 °F 25% 30.12 in - WNW 6.7 mph - N/A   Clear
2:30 PM 69.8 °F - 33.8 °F 27% 30.09 in - West 6.7 mph - N/A   Clear
3:00 PM 69.8 °F - 30.2 °F 23% 30.09 in - WNW 8.9 mph - N/A   Clear
3:30 PM 69.8 °F - 32.0 °F 25% 30.09 in - NW 6.7 mph - N/A   Clear
4:00 PM 69.8 °F - 32.0 °F 25% 30.09 in - NW 4.5 mph - N/A   Clear
4:30 PM 69.8 °F - 32.0 °F 25% 30.09 in - NW 8.9 mph - N/A   Clear
5:00 PM 69.8 °F - 30.2 °F 23% 30.09 in - NNW 6.7 mph - N/A   Clear
5:30 PM 68.0 °F - 28.4 °F 23% 30.09 in - NNW 11.2 mph - N/A   Clear
6:00 PM 68.0 °F - 30.2 °F 24% 30.09 in - NW 6.7 mph - N/A   Clear
6:30 PM 64.4 °F - 32.0 °F 30% 30.09 in - NW 6.7 mph - N/A   Clear
7:00 PM 62.6 °F - 33.8 °F 34% 30.09 in - NNW 4.5 mph - N/A   Clear
7:30 PM 60.8 °F - 33.8 °F 36% 30.09 in - North 4.5 mph - N/A   Clear
8:00 PM 59.0 °F - 32.0 °F 36% 30.12 in - North 4.5 mph - N/A   Clear
8:30 PM 57.2 °F - 32.0 °F 38% 30.12 in - North 4.5 mph - N/A   Clear
9:00 PM 57.2 °F - 30.2 °F 36% 30.12 in - North 6.7 mph - N/A   Clear
9:30 PM 55.4 °F - 30.2 °F 38% 30.12 in - North 4.5 mph - N/A   Clear
10:00 PM 53.6 °F - 32.0 °F 44% 30.12 in - NNE 4.5 mph - N/A   Clear
10:30 PM 51.8 °F - 32.0 °F 47% 30.12 in - North 4.5 mph - N/A   Clear
11:00 PM 50.0 °F - 32.0 °F 50% 30.15 in - NNE 2.2 mph - N/A   Clear
11:30 PM 50.0 °F - 32.0 °F 50% 30.15 in - Calm Calm - N/A   Clear